Location: Arrodets-la-Barthe
(43.0306°N, 0.2829°E)
Time: 06:52:42
(UTC+00:00)

CUBEBUG 2 - Pass Details

Date: 05 April 2023
Orbit: 577 x 685 km, 97.8° (Epoch: 03 June)

Event Time Altitude Azimuth Distance (km) Brightness Sun altitude
Rises 01:32:25 0° 26° (NNE) 3,050 ? -36.9°
Reaches altitude 10° 01:35:11 10° 43° (NE) 2,117 ? -36.7°
Enters shadow 01:36:52 17° 61° (ENE) 1,682 ? -36.5°
